Weather in Malpils

Latvia     57°00′25″N   24°57′07″E
temp.,
°C
wind,
m/s
gust,
m/s
humid.,
%
clouds,
%
prec.,
mm/h
press.,
hPa
HPBL,
m
21 april, wed
wed2100:00+6se398188 0.0 1012334
03:00+5se269198 0.0 1011161
06:00+4se249824 0.0 1008102
09:00+8sse22765 0.0 1007373
12:00+13wsw345316 0.3 10051291
15:00+14wnw563632 0.6 10041800
18:00+14nw353967 0.0 10031859
21:00+7wnw2263100 0.0 100317
22 april, thu
thu2200:00+5ssw287159 0.0 1004167
03:00+5ssw3118157 0.0 1004445
06:00+4sw4117589 0.0 1004586
09:00+6sw586158 0.0 10051212
12:00+9ssw583970 0.0 10051996
15:00+11sw6835100 0.0 10052521
18:00+9ssw695294 0.5 10041951
21:00+4ssw597787 0.9 10051003
23 april, fri
fri2300:00+2ssw5985100 0.1 1005908
03:00+1ssw51195100 0.3 1004690
06:00+1ssw41198100 2.5 1003655
09:00+1w41097100 4.3 1005474
12:00+3w5983100 0.8 10071083
15:00+4w61175100 1.6 10091397
18:00+3wnw5108388 0.7 10111145
21:00+1w4987100 0.9 1011861
24 april, sat
sat2400:000sw41198100 0.4 1009876
03:00+1wnw41197100 2.0 1009830
06:00+1wnw51297100 0.8 1010724
09:00+1wnw61397100 2.9 1010789
12:00+2w71392100 1.4 10101245
15:00+3w71294100 2.8 10101098
18:00+2w51197100 0.6 1010780
21:00+2wnw499689 0.8 1011784
25 april, sun
sun2500:00+1wnw51098100 0.3 1010786
03:00+1wnw51097100 0.9 1010864
06:000nw51197100 1.0 1010979
09:00+1wnw51297100 1.9 1010920
12:00+3nw6118485 0.6 10111392
15:00+3nw61185100 1.2 10121218
18:00+2nw6118779 0.5 10131066
21:000nw4118894 0.6 1013722